Commit Graph

  • 36a2e55474 fix: update upstream repo for plugin template appel_c 2025-06-11 16:04:58 +02:00
  • 19d117619a refactor: replace deprecated consumer/producer with connector wakonig_k 2025-06-04 19:38:30 +02:00
  • 447a9c3924 refactor: upgrade to copier version v1 wakonig_k 2025-05-24 11:37:51 +02:00
  • 34fc057cfd test: add tests for omny alignment gui fix/omny_alignment_type_hints wakonig_k 2025-04-25 11:34:35 +02:00
  • 424bd662b2 refactor(omny_alignment_widget): improve type hints wakonig_k 2025-04-25 10:53:50 +02:00
  • 17e525689c initial version of omny alignment gui Holler Mirko 2025-04-23 12:59:18 +02:00
  • d7290e3942 wip work at beamline feat/add_eiger_jjf gac-x12sa 2025-04-23 10:51:14 +02:00
  • 730926f5b3 wip jfj integration gac-x12sa 2025-03-25 16:30:01 +01:00
  • 18215a05b5 wip jfj, implemented first logic for computing triggers and pulse widths gac-x12sa 2025-03-24 17:39:26 +01:00
  • 5cd93fc5aa wip moving readout from class attribute to constant gac-x12sa 2025-03-24 17:38:01 +01:00
  • 2b4a13ebc2 wip eiger, improve stage procedure for BEC core scans gac-x12sa 2025-03-24 08:22:46 +01:00
  • ee8fa8b962 wip fixing jfj client, improve start procedure gac-x12sa 2025-03-24 08:22:19 +01:00
  • b281e458f9 wip small fixes of ddg csaxs for readout times gac-x12sa 2025-03-24 08:21:02 +01:00
  • 48bd7f73a8 refactor: delay generator ready for step scanning gac-x12sa 2025-03-21 15:12:35 +01:00
  • b806487c54 wip: draft from working at the beamline gac-x12sa 2025-02-26 15:45:22 +01:00
  • 53dca4dc6f wip, fix enums for pytest 3.10 appel_c 2025-02-26 11:28:04 +01:00
  • ccf8bb8474 refactor: client refactoring, adding tests for jfj_client models appel_c 2025-02-26 11:22:14 +01:00
  • 4907c5db27 fix: add get_config template to pre_startup appel_c 2024-07-04 09:55:03 +02:00
  • 0dfcedc47f build: add jjf_client to dependencies appel_c 2025-01-15 08:20:59 +01:00
  • 8f2335396b test: fix mock due to refactoring in ophyd devices appel_c 2025-01-14 17:52:34 +01:00
  • 8a7a005b56 feat: add JungFrauJoch client draf and test appel_c 2024-12-05 09:27:20 +01:00
  • e19ce733a2 refactor: initial commit for updates on ddg from csaxs appel_c 2024-12-05 09:26:31 +01:00
  • ccaf996512 refactor: refactored ddg csaxs with new base class in ophyd devices gac-x12sa 2024-12-04 16:56:21 +01:00
  • 83de8b75db added show all methods Holler Mirko 2025-01-09 14:22:23 +01:00
  • 829bdc11c1 adjusted to new gui manager Holler Mirko 2025-01-09 14:20:29 +01:00
  • cbb3f9e8bc added example table for temperatures Holler Mirko 2025-01-08 13:22:19 +01:00
  • 5f819d9835 further fix omny doc Holler Mirko 2025-01-08 11:51:02 +01:00
  • 8f55b6dbcb Fixes in omny documentation plus added show all for all relevant omny components Holler Mirko 2025-01-08 11:46:49 +01:00
  • b2095f8d7b Merge branch 'main' into 'lamnidoc' holler 2024-12-16 17:03:19 +01:00
  • 9186853faf lamni doc Mirko Holler 2024-12-16 16:50:53 +01:00
  • 4d241d26f3 Update omny.md values of interferometer SSI holler 2024-12-13 13:19:19 +01:00
  • f47ca6e174 Update lamni.md holler 2024-12-02 13:51:43 +01:00
  • e86e6ba63c Update ptychography.md holler 2024-12-02 13:51:10 +01:00
  • 7ff2f7dc1b Update omny.md holler 2024-12-02 13:50:36 +01:00
  • ef1ab749a9 Update flomni.md holler 2024-12-02 13:50:05 +01:00
  • ec53bb7000 fixes in flomni doc and completion of first version of omny doc Mirko Holler 2024-12-02 13:44:18 +01:00
  • 5f1449365d some mods omny doc Mirko Holler 2024-11-29 17:28:28 +01:00
  • 9699b39a7e continued with omny documentation Mirko Holler 2024-11-29 13:20:39 +01:00
  • 4fa81ddc5c fix: fixes related to BEC v3 wakonig_k 2024-11-08 13:22:24 +01:00
  • 79f63b84fc completed initial version of flomni docs Mirko Holler 2024-11-18 13:14:21 +01:00
  • 5f9f2c8762 started editing flomni doc Holler Mirko 2024-11-15 16:36:44 +01:00
  • 58960944f8 init version Holler Mirko 2024-11-15 15:37:41 +01:00
  • dfb4fa75d9 initial version Holler Mirko 2024-11-15 15:37:04 +01:00
  • 70b196403b docs: cleanup to support rtd autosummary wakonig_k 2024-11-14 17:42:40 +01:00
  • f14a5f220e docs: cleanup for rtd wakonig_k 2024-11-14 16:35:37 +01:00
  • a4077be379 build: added bec_widgets as dependency wakonig_k 2024-11-14 16:35:24 +01:00
  • cf96658625 docs: fixed install path wakonig_k 2024-11-14 16:27:55 +01:00
  • c21d6cf3c6 docs: install repo for rtd wakonig_k 2024-11-14 16:23:33 +01:00
  • 4f22de66f6 docs: fixed config path wakonig_k 2024-11-14 16:16:32 +01:00
  • dadee3efc1 docs: fixed install for rtd wakonig_k 2024-11-14 16:10:17 +01:00
  • 19ac208f73 config fix ocsx ocsy Holler Mirko 2024-11-12 15:11:13 +01:00
  • a327d0ccaa refactor(gui_tools): cleanup of unused imports wakonig_k 2024-11-12 15:36:17 +01:00
  • 9107b1f14b fixed camera init minor adjustments progress gui Holler Mirko 2024-11-12 13:19:08 +01:00
  • bb8bf3a072 req key args Holler Mirko 2024-11-11 15:34:46 +01:00
  • 9c331c13e0 refactor(gui_tools): minor cleanup wakonig_k 2024-11-12 15:29:48 +01:00
  • 8a1951766b fixes Holler Mirko 2024-11-07 12:09:14 +01:00
  • a70c4588a0 added textbox to gui Holler Mirko 2024-11-07 11:40:49 +01:00
  • 55aa7128e2 work on omny gui, initial status progress bar Holler Mirko 2024-11-06 16:56:53 +01:00
  • b31a1ea996 docs: fixed api reference wakonig_k 2024-11-05 22:22:52 +01:00
  • 820b673144 docs: fixed landing page wakonig_k 2024-11-05 22:15:08 +01:00
  • 805d4b5a13 docs: add readthedocs configuration wakonig_k 2024-11-05 22:01:42 +01:00
  • 011955ca38 docs: Update device list ci_update_bot 2024-11-05 14:12:11 +00:00
  • 04f123ab2b fix(ids_camera): safe-guarded the import of ids libs wakonig_k 2024-11-05 14:52:42 +01:00
  • 372205957b refactor: formatting wakonig_k 2024-11-05 14:51:16 +01:00
  • 41d574253e added cameras plus some fixes Holler Mirko 2024-11-05 13:37:14 +01:00
  • c9536d9380 various fixes Holler Mirko 2024-10-09 14:29:19 +02:00
  • 831ace2533 fix: added missing pyueye lib wakonig_k 2024-10-09 10:50:57 +02:00
  • 20a4f4d0bc fixes. ready for first merge. Holler Mirko 2024-10-08 17:10:43 +02:00
  • 3ae62c8ff9 fix Holler Mirko 2024-10-07 17:24:35 +02:00
  • 40c460d120 first scanning via tomo_scan_projection, added mirror corrections Holler Mirko 2024-10-07 17:17:04 +02:00
  • 0d66d2d364 added tracker check Holler Mirko 2024-10-02 13:24:34 +02:00
  • 2e3ed9f6f0 cleanup and move mirror parameters to server and transfer to client Holler Mirko 2024-10-02 13:14:54 +02:00
  • fff0b8ce41 moved auto alignment methods from client to rt server Holler Mirko 2024-10-02 12:41:04 +02:00
  • d7308a8b81 omny fermat scan Holler Mirko 2024-10-02 10:35:24 +02:00
  • 86e71ca255 first adjustments towards scanning Holler Mirko 2024-10-01 16:32:52 +02:00
  • d3c86b07a0 introduce 25 deg offset in osamroy to have 0 to 360 initial work on omny class Holler Mirko 2024-10-01 15:36:10 +02:00
  • af2a2df55f rt movement possible. added slew rate limiter querry to rt communication Holler Mirko 2024-09-27 13:54:47 +02:00
  • d2e4a8c703 axis not stopping Holler Mirko 2024-09-27 12:55:34 +02:00
  • a8cc2bcbe0 interferometer feedback running Holler Mirko 2024-09-27 12:38:09 +02:00
  • cb16dcfb4c multiple cameras and fix cam id Holler Mirko 2024-09-24 08:25:21 +02:00
  • 4282d4ead6 first version ids Holler Mirko 2024-09-18 12:35:49 +02:00
  • a07a56822f continued with auto alignment and laser tracker Holler Mirko 2024-09-13 11:49:35 +02:00
  • 07543755d9 first commissioning of interferometer auto alignment Holler Mirko 2024-09-12 16:02:18 +02:00
  • 793eedb3f4 continued with mirror tweaking. started with laser tracker. implemented tweak curser function. Holler Mirko 2024-09-11 12:12:32 +02:00
  • dbae426a87 started with implementation of RT omny Holler Mirko 2024-09-10 17:52:24 +02:00
  • 9e84c1570c omny vacuum control system device Holler Mirko 2024-09-09 17:09:44 +02:00
  • 2002f2fabf added device for dewar monitoring Holler Mirko 2024-09-06 12:43:01 +02:00
  • fb49295a92 fixes temperature device Holler Mirko 2024-09-06 11:46:04 +02:00
  • 85ecf8b55f added show all cryo Holler Mirko 2024-09-06 11:26:05 +02:00
  • a1eacdf54b continued devel temperature device Holler Mirko 2024-09-05 15:35:17 +02:00
  • c9a1fd1cd6 initial version of temperature device Holler Mirko 2024-09-05 13:39:26 +02:00
  • 54b9a5004a completed sample transfer commissioning Holler Mirko 2024-09-04 14:40:51 +02:00
  • 972d010954 gripper move to and from sample stage commissioned Holler Mirko 2024-09-03 15:44:21 +02:00
  • b1f4207738 sample transfer put and get at shuttle positions commissioned Holler Mirko 2024-09-02 16:53:34 +02:00
  • 45dfc1305e further sample transfer. first gripper movements Holler Mirko 2024-08-30 16:04:37 +02:00
  • 5f90b32210 started commissioning of sample transfer. shuttle align, open and close Holler Mirko 2024-08-29 15:04:22 +02:00
  • 29a8e1b281 optics movements Holler Mirko 2024-08-27 16:16:07 +02:00
  • 78b838f516 first init of omny stages. adding color printing, moving methods to tools and further auto init Holler Mirko 2024-08-26 16:17:31 +02:00
  • 17d4fcb8db messages to client Holler Mirko 2024-08-22 16:21:58 +02:00
  • e03b3b84e0 started commissioning with hardware. first movements. added smaract to config Holler Mirko 2024-08-22 15:50:03 +02:00